Zurück zum Katalog

BREEZE-M R/B

AktivMEO
NORAD 39729·ROCKET BODY·🇷🇺 Russia

Gestartet Apr 28, 2014 von Baikonur Cosmodrome

Loading…

Nächste Überflüge (nächste 24 Stunden)

TLE

AlterndSource: Space-Track

Epoche: Sep 1, 2026, 11:41 UTC

1 39729U 14023C   26244.48729835 -.00000112  00000-0  00000-0 0  9999
2 39729  10.3046  52.6218 0643946 202.3543 154.8529  0.92543694 41686

Verfolge BREEZE-M R/B in Echtzeit mit AllMySat

Download on the App Store